Showing default

METOP SG-A, 65159

Orbit data source: Space-Track

METOP SG-A, 65159 is a payload satellite owned by EUMETSAT (ESA) in SSO that was launched on Wed, 13 Aug 2025 UTC via an ARIANE 62 launch vehicle from the French Guiana (FRGUI). Payload-class satellites include a variety of spacecraft equipped with specific instruments for various scientific and technological missions. These include communications satellites like Starlink; space stations such as the ISS; scientific satellites like the Hubble; Earth observation satellites from companies like Planet Labs, Umbra, and HawkEye 360; GPS; miniature CubeSats for education and research; and military/defense satellites.

Loading next visibility...
Identifier
65159, 2025-172A
Orbit
SSO
Country
Flag of ESAESA
Related business
Manufacturer
Airbus/Toulouse
Mission
Operational spacecraft
Bus & Motor
METOP, AOCS
Mass
4,050 kg wet, 3,250 kg dry
Launch date (UTC)
2025-08-13 (3 weeks ago)
Launch vehicle
ARIANE 62
Launch site
French Guiana (FRGUI)
Object type
Payload
Rocket body
Debris
Shape & HBR
Unknown
Radar Cross Section
Large (>1 m²)

Expand to show TLE details & history
Last TLE update: 16 hours ago

TLE from 16 hours ago
0 METOP SG-A
1 65159U 25172A   25242.10326929  .00000074  00000-0  51829-4 0  9990
2 65159  98.7060 301.3213 0006732 312.2885  47.7722 14.23706166  2421
Epoch: 2025-08-30T02:28Z
TLE epoch observation values (Epoch: 2025-08-30T02:28:42.466Z)
Latitude
-0.00006°
Longitude
-74.398°
Altitude
812.513 km
Speed
7.449 km/s
True Right ascension
20h 05m 17s
True Declination
0° 00' 00"
Sunlit
Object was in full shadow at epoch
Visualization orbit readout
Latitude
Unknown
Longitude
Unknown
Altitude
Unknown
Speed
Unknown
Apparent Right ascension
Unknown
Apparent Declination
Unknown
Sunlit
N/A
Visualization observer readout
Local Sidereal Time
10:33:30
Azimuth
Unknown
Elevation
Unknown
Doppler factor
Unknown
Orbital elements
Apogee altitude
814.839 km
Perigee altitude
805.16 km
Semi-major axis
7,188.136 km
Eccentricity
0.00067
Inclination
98.706°
RAAN
301.3213°
Arg. of periapsis
312.2885°
True anomaly
47.82936°
Mean anomaly
47.7722°
Eccentric anomaly
47.80077°
Mean motion
3.56138 °/min
Orbital period
101.08 mins
BSTAR
0.000051829
Loading maneuver chart data...
Computing Atmospheric mass density...
Loading historical data...
Loading historical data...
Loading historical data...
Loading historical data...
Loading historical data...
Loading historical data...
Loading historical data...
Other satellites on launch #172 in the year 2025 (2025-08-13 UTC)

Documentation

Showing up to 5 results
|